Вернуться в каталог

STARLINK-32172

АктивенСвязьVLEO
NORAD 61518·PAYLOAD·🇺🇸 United States

Запущен Oct 15, 2024 с Cape Canaveral Space Force Station

Loading…

Ближайшие Пролёты (ближайшие 24 часа)

TLE

СвежийSource: CelesTrak SupGP

Эпоха: Sep 15, 2026, 02:03 UTC

1 61518C 24183K   26258.08590278  .00066878  00000+0  21497-2 0  2588
2 61518  53.1605 341.1266 0001177  82.2944 228.1924 15.31682135    15

Отслеживайте STARLINK-32172 в реальном времени с AllMySat

Download on the App Store